Tracking 30995 objects as of 6-Jul-2025
HD Live streaming from Space Station
objects crossing your sky now

STARLINK-5966

Track STARLINK-5966 now!
10-day predictions
STARLINK-5966 is classified as:


NORAD ID: 56919
Int'l Code: 2023-083AV
Perigee: 565.3 km
Apogee: 567.2 km
Inclination: 43.0 °
Period: 95.8 minutes
Semi major axis: 6937 km
RCS: Unknown
Launch date: June 12, 2023
Source: United States (US)
Launch site: AIR FORCE EASTERN TEST RANGE (AFETR)
Your satellite tracking list
COSMOS 2251 DEB
Track 1 satellite(s)




NASA's NSSDC Master Catalog

Two Line Element Set (TLE):
1 56919U 23083AV  25187.41157236 -.00000534  00000-0 -24490-4 0  9995
2 56919  43.0047 326.9946 0001361 268.0673  92.0013 15.02531298114773
Source of the keplerian elements: AFSPC